Lid_Strength_Index
1 1 1 1 1 1 1 3 4 6 6 4 4 3 2 3 4 3 3 4 4 3 2 1 1 1 1 1 1 1 1 0 0 1 0 1 1 1
1 1 1 1 1 1 1 2 2 4 6 3 4 2 3 3 3 3 3 5 4 3 3 3 3 2 2 2 2 2 1 1 1 1 1 0 0 0
1 1 2 1 1 1 1 2 2 3 5 3 3 3 3 3 3 3 3 3 3 4 3 3 3 3 3 3 3 2 2 2 1 1 1 1 1 0
2 2 2 1 2 1 2 2 2 2 3 4 3 4 3 3 2 3 3 3 3 4 4 3 4 4 3 3 3 3 3 3 3 3 2 2 1 0
2 2 2 2 2 2 2 2 2 2 2 3 3 2 2 3 4 4 3 4 4 6 4 4 4 4 4 4 4 4 4 4 5 5 4 3 2 1
1 1 1 2 2 2 2 2 2 2 2 3 3 4 4 5 4 5 7 7 7 7 6 6 5 5 5 5 5 6 6 6 5 5 4 3 3 2
2 1 1 2 4 2 2 2 2 3 3 3 4 5 6 7 6 7 6 8 9 8 8 8 8 8 8 7 8 8 7 6 5 4 3 2 3 4
2 2 1 4 3 4 4 4 2 3 3 4 4 5 7 7 8 8 9 9 9 9 9 10 9 9 8 8 9 8 7 7 5 3 3 3 4 5
6 6 6 6 4 3 5 6 7 7 4 4 5 7 8 8 9 10 10 10 10 10 9 10 9 9 8 9 9 8 7 6 4 4 4 5 5 6
8 8 8 8 7 7 7 9 9 9 9 9 8 9 9 8 9 9 9 10 10 10 8 9 10 9 9 8 9 7 6 5 5 5 5 5 6 7
10 9 9 9 8 8 10 11 11 11 9 9 9 9 9 8 9 9 11 11 11 10 9 9 10 10 9 8 9 9 7 7 6 5 5 6 7 7
11 11 10 9 9 10 11 11 12 12 12 12 12 12 12 11 11 10 11 13 13 11 10 10 11 9 10 10 10 9 8 8 7 6 7 7 7 7
13 12 11 10 10 10 11 12 13 13 14 14 13 14 14 14 14 13 11 11 12 11 10 11 12 11 10 9 9 10 10 9 9 8 8 8 8 8
12 11 12 11 11 11 12 12 12 14 14 15 15 15 15 14 14 13 11 11 10 11 9 10 13 11 11 11 11 9 9 10 10 10 10 9 9 9
11 11 11 11 11 11 11 12 12 13 15 15 15 14 13 13 13 12 12 12 12 12 12 13 12 13 12 13 13 12 11 9 10 10 10 11 11 11
12 12 12 13 13 13 14 14 14 14 15 15 15 14 14 14 14 13 13 13 13 13 13 14 13 13 13 12 13 13 12 13 10 11 11 11 11 11
14 14 15 15 15 15 15 15 15 15 15 15 15 15 15 14 14 13 13 13 14 14 13 12 12 12 12 13 14 13 13 12 11 11 12 12 11 10
15 16 16 16 16 16 16 16 16 16 16 15 15 15 15 15 15 14 14 14 15 14 14 13 13 13 13 12 12 13 13 13 12 11 12 12 12 10
15 15 15 15 15 15 15 16 16 15 15 15 15 15 15 15 15 15 15 15 15 15 14 13 13 13 15 16 12 11 12 12 12 12 12 12 12 11
15 15 15 15 15 15 15 15 15 15 15 15 15 15 15 15 16 16 15 16 16 15 14 13 13 13 14 14 14 11 11 12 12 13 13 12 11 10
15 16 15 15 15 15 16 16 17 16 17 17 17 17 17 16 17 16 16 16 16 16 16 15 14 12 13 13 14 14 11 12 11 12 12 13 13 13
16 16 16 16 16 17 17 17 17 17 18 18 18 18 18 18 18 17 17 17 17 17 16 14 13 14 14 15 15 14 13 12 12 12 11 12 13 14
16 17 17 17 17 18 19 19 19 19 19 20 19 19 19 19 18 18 18 18 18 17 17 17 16 15 16 15 15 15 14 13 14 14 13 11 10 11